This is the latest recevied weather packets stored in our database for station/object XE2MEM-21. If no packets are shown the sender has not sent any weather packets the latest 10 day(s).
| Time | Temp. | Humidity | Pressure | Rain* | Wind** | Luminosity | Snow |
|---|---|---|---|---|---|---|---|
| 1788156177 | 87° F | 100% | 758.2 mmHg | - | - | - | - |
| 1788155276 | 87° F | 100% | 758.2 mmHg | - | - | - | - |
| 1788154376 | 87° F | 100% | 758.2 mmHg | - | - | - | - |
| 1788153476 | 88° F | 100% | 758.2 mmHg | - | - | - | - |
| 1788152576 | 88° F | 100% | 758.1 mmHg | - | - | - | - |
| 1788151676 | 89° F | 100% | 758.2 mmHg | - | - | - | - |
| 1788150776 | 88° F | 100% | 758.2 mmHg | - | - | - | - |
| 1788149876 | 89° F | 100% | 758.1 mmHg | - | - | - | - |
| 1788148976 | 88° F | 100% | 758 mmHg | - | - | - | - |
| 1788148076 | 88° F | 100% | 757.8 mmHg | - | - | - | - |
| 1788147176 | 89° F | 93% | 757.6 mmHg | - | - | - | - |
| 1788146276 | 89° F | 89% | 757.5 mmHg | - | - | - | - |
| 1788145376 | 89° F | 89% | 757.3 mmHg | - | - | - | - |
| 1788144475 | 90° F | 86% | 757 mmHg | - | - | - | - |
| 1788143575 | 91° F | 82% | 757 mmHg | - | - | - | - |
| 1788142675 | 90° F | 80% | 756.8 mmHg | - | - | - | - |
| 1788141775 | 91° F | 74% | 756.7 mmHg | - | - | - | - |
| 1788140875 | 93° F | 67% | 756.4 mmHg | - | - | - | - |
| 1788139975 | 92° F | 64% | 756.5 mmHg | - | - | - | - |
| 1788139075 | 93° F | 62% | 756.4 mmHg | - | - | - | - |
| 1788138175 | 94° F | 58% | 756.4 mmHg | - | - | - | - |
| 1788137275 | 95° F | 53% | 756.1 mmHg | - | - | - | - |
| 1788136374 | 96° F | 49% | 755.9 mmHg | - | - | - | - |
| 1788135474 | 97° F | 46% | 755.8 mmHg | - | - | - | - |
| 1788134574 | 98° F | 45% | 755.5 mmHg | - | - | - | - |
* Rain since midnight (hover to see other rain measurements)
** Current wind speed in m/s (hover to see current wind gust speed)